Regional Weather Roundup
Issued by NWS Green Bay, WI

Home | Current Version | Previous Version | Graphics & Text | Print | Product List | Glossary Off
Versions: 1 2 3 4 5 6 7 8 9 10 11 12 13 14 15 16 17 18 19 20 21 22 23 24 25 26 27 28 29 30 31 32 33 34 35 36 37 38 39 40 41 42 43 44 45 46 47 48 49 50

000
ASUS43 KGRB 242312
RWRGRB

NORTH-CENTRAL AND NORTHEAST WISCONSIN REGIONAL WEATHER ROUNDUP
NATIONAL WEATHER SERVICE GREEN BAY WI
600 PM CDT SUN SEP 24 2017

WIZ005-009-010>012-018-019-250000-
NORTH CENTRAL WISCONSIN

CITY           SKY/WX    TMP DP  RH WIND       PRES   REMARKS
IRONWOOD       CLEAR     83  59  44 S9        29.92S
MANITOWISH WTR NOT AVBL
ARBOR VITAE    CLEAR     81  63  53 S7        29.98S
EAGLE RIVER    CLEAR     82  56  42 S5        29.98S
LAND O LAKES   CLEAR     82  58  42 S6        30.00S
RHINELANDER    CLEAR     82  59  45 S8        30.00S
PHILLIPS       PTCLDY    82  59  46 SW6       29.95F
ANTIGO         CLEAR     80  63  55 S8        30.01S
TOMAHAWK       CLEAR     80  57  45 CALM      29.98S
MERRILL        CLEAR     84  58  41 S8        29.98S
$$

WIZ013-073-250000-
NORTHEAST WISCONSIN

CITY           SKY/WX    TMP DP  RH WIND       PRES   REMARKS
IRON MOUNTAIN  CLEAR     83  64  52 S8        29.98S
MARINETTE      CLEAR     79  66  64 S9        30.00R
OCONTO         CLEAR     81  67  62 S6        29.99S
$$

WIZ017-030-035>037-045-250000-
CENTRAL WISCONSIN

CITY           SKY/WX    TMP DP  RH WIND       PRES   REMARKS
MEDFORD        CLEAR     80  61  52 S7        29.97S
WAUSAU         CLEAR     83  59  44 S9        29.96F
MOSINEE        PTCLDY    81  61  50 S8        29.99S
MARSHFIELD     CLEAR     82  59  45 S8        29.96F
WISC RAPIDS    CLEAR     85  60  42 S7        29.98S
STEVENS POINT  CLEAR     82  58  43 S6        29.99S
WAUPACA        CLEAR     85  63  46 SE5       29.98F
SHAWANO        CLEAR     86  62  44 S3        29.98S
CLINTONVILLE   CLEAR     84  59  42 S6        29.98F
WAUTOMA        CLEAR     85  61  44 S5        29.98S
$$

WIZ038-039-048-051-250000-
FOX VALLEY

CITY           SKY/WX    TMP DP  RH WIND       PRES   REMARKS
NWS GREEN BAY  CLEAR     84  69  60 SE10      29.99S
APPLETON       PTCLDY    84  57  39 SW8       29.99S
OSHKOSH        CLEAR     83  65  54 S8        29.99S
FOND DU LAC    CLEAR     83  62  49 S6        30.00S
$$

WIZ022-050-052-250000-
EAST CENTRAL WISCONSIN

CITY           SKY/WX    TMP DP  RH WIND       PRES   REMARKS
EPHRAIM        FAIR      77  64  63 S6        30.00F
WASHINGTON ISL FAIR      73  65  76 S7        30.00S
STURGEON BAY   CLEAR     77  64  64 S9        30.02R
MANITOWOC      CLEAR     76  66  71 S9        30.02S
SHEBOYGAN      CLEAR     79  66  64 S6        30.01F
$$

LMZ563-521-522-541>543-250000-
LAKESHORE

STATION/POSITION TIME  TEMP    WIND        PRES    VSBY  WAVE
                       AIR SEA DIR/SP/G                  HT/PER
                 (UTC) (F)     (DEG/KT/KT) (MB)    (MI)  (FT/S)
SHEBOYGAN LKSHOR 2300   74     180/ 11/ 12 1015.7F
KEWAUNEE LKSHORE 2242   67     180/  8/  9 1015.7F
NORTHPORT PIER   2240   76     160/  5/  9 1015.9S
N MID LAKE BUOY  2250   71 67  200/ 10/ 12 1016.6F         1/ 3
S GREEN BAY BUOY 2300   78 72  150/ 10/ 12 1015.3R
MENOMINEE LKSHOR 2242   78     160/ 11/ 14 1015.3R
$$



USA.gov is the U.S. government's official web portal to all federal, state and local government web resources and services.